Location: Francon
(43.2598°N, 0.9729°E)
Time: 02:06:37
(UTC+00:00)

Daily predictions for brighter satellites

Satellite Brightness Start Highest point End
(mag) Time Altitude Azimuth Time Altitude Azimuth Time Altitude Azimuth
ATLAS 3B R/B 3.8 03:36:31 39° SE 03:36:31 39° SE 03:40:49 10° SE
CZ-4C R/B 4.3 03:47:08 19° NNE 03:47:08 19° NNE 03:48:51 10° NNE
Atlas Centaur 2 4.2 04:00:45 25° S 04:00:45 25° S 04:04:51 10° SE
Cosmos 1844 Rocket 4.4 04:02:42 24° NNE 04:02:42 24° NNE 04:04:53 10° NNE
ATLAS 5 CENTAUR R/B 3.4 04:17:18 27° ENE 04:17:18 27° ENE 04:19:50 10° NE
ADEOS 3.7 04:29:41 10° NNE 04:34:56 70° ESE 04:40:07 10° S
FENGYUN 3A 3.6 04:29:58 10° NNE 04:35:25 84° ESE 04:40:48 10° SSW
ATLAS 2AS CENTAUR R/B 3.8 04:39:47 32° NNW 04:39:47 32° NNW 04:45:57 10° NNE
Meteor 1-10 Rocket 4.3 04:41:21 29° N 04:44:17 75° E 04:49:58 10° SSE
Milstar 3 Cent rocket 4.3 04:42:06 19° SSW 04:44:20 21° S 04:51:21 10° SE
SKYMED 2 4.4 04:42:45 10° SE 04:46:55 48° ENE 04:48:45 29° NNE
Cosmos 372 Rocket 3.8 04:49:27 74° SW 04:49:55 85° WNW 04:55:03 10° NNE
COSMOS 2455 2.7 04:49:17 62° WSW 04:50:06 71° WNW 04:56:09 10° NNE
CZ-2C R/B 3.2 04:50:56 17° SSE 04:50:56 17° SSE 04:52:33 10° SE
METEOR-M 4.0 04:44:54 10° NNE 04:50:17 89° ESE 04:55:38 10° SSW
Cosmos 2154 Rocket 4.0 04:47:31 10° S 04:53:45 81° E 05:00:05 10° N
Cosmos 2298 Rocket 4.4 04:48:50 10° S 04:54:01 63° ESE 04:59:16 10° NNE
Sich 1 3.8 04:55:02 10° S 04:59:20 54° E 05:03:40 10° NNE
ALOS 4.3 04:56:00 10° N 04:56:57 16° N 04:56:57 16° N
ERS-2 3.5 04:57:14 10° S 04:59:08 29° S 04:59:08 29° S
Cosmos 1833 Rocket 3.5 04:57:52 18° N 05:01:53 48° ENE 05:07:18 10° SE
Cosmos 2327 Rocket 4.3 04:56:33 10° S 05:02:38 84° W 05:08:46 10° N
Cosmos 2074 Rocket 4.0 04:59:12 10° SSW 05:05:15 54° WNW 05:11:21 10° N
SL-4 R/B 2.3 05:06:43 52° NNE 05:06:50 52° NNE 05:10:27 10° ESE
Cosmos 2082 Rocket 3.8 05:01:56 10° N 05:07:02 32° NE 05:12:06 10° ESE
EXPRESS MD2 3.4 05:07:42 65° NNW 05:08:12 75° NNE 05:14:35 10° ESE
Cosmos 2228 Rocket 3.1 05:11:08 57° WSW 05:11:08 57° WSW 05:15:09 10° S
Cosmos 1437 Rocket 2.5 05:12:48 71° SW 05:12:48 71° SW 05:16:20 10° S
Lacrosse 5 3.6 05:12:41 18° N 05:12:48 18° N 05:16:16 10° NE
EO 1 Delta rocket 4.0 05:12:00 10° SSE 05:16:43 72° ENE 05:21:22 10° N
Meteor 2-6 Rocket 4.4 05:16:02 41° WNW 05:16:57 45° W 05:22:11 10° SSW
Cosmos 2341 Rocket 4.3 05:14:19 10° S 05:20:28 70° E 05:26:40 10° NNE
ATLAS 3B R/B 3.8 05:23:49 23° WSW 05:23:49 23° WSW 05:29:05 10° SSW
USA 307 3.0 05:22:34 43° NW 05:23:54 75° NE 05:28:12 10° ESE
Meteor PRIRODA 3.5 05:23:43 10° N 05:27:28 84° WNW 05:31:11 10° SSW
CZ-4B R/B 2.9 05:25:13 10° N 05:29:38 73° WNW 05:33:50 10° SSW
USA 308 2.9 05:28:59 38° NW 05:30:35 83° NE 05:34:52 10° SE
Cosmos 2184 Rocket 4.5 05:25:14 10° SW 05:31:01 37° WNW 05:36:53 10° N
CZ-4C R/B 3.7 05:32:19 18° NNW 05:32:51 18° NNW 05:37:04 10° NNE
Cosmos 2278 Rocket 2.1 05:27:40 10° SSW 05:33:20 88° WNW 05:39:03 10° NNE
SAR-Lupe-4 3.7 05:30:38 10° S 05:34:05 48° W 05:34:40 43° WNW
COSMO-SKYMED 1 2.7 05:30:44 10° S 05:34:57 50° W 05:37:21 24° NW
Cosmos 1862 Rocket 4.4 05:34:41 10° N 05:39:01 51° ENE 05:43:17 10° SSE
Okean O Rocket 4.1 05:35:26 10° NE 05:39:08 25° E 05:42:49 10° SSE
Cosmos 1805 Rocket 3.9 05:35:08 10° SSW 05:39:20 41° WNW 05:43:35 10° N
Envisat 3.7 05:35:09 10° NNE 05:40:10 57° E 05:45:09 10° S
deb Chang Zheng 4 4.1 05:38:35 10° N 05:42:33 35° WNW 05:46:29 10° SW
Cosmos 1844 Rocket 4.2 05:44:24 18° NW 05:44:24 18° NW 05:47:37 10° N
Cosmos 494 Rocket 3.9 05:39:47 11° NNW 05:44:50 89° WSW 05:49:57 10° SSE
YAOGAN 6 3.2 05:41:55 10° NNE 05:45:21 55° E 05:48:47 10° S
Cosmos 1666 Rocket 3.4 05:43:12 10° SSW 05:47:30 71° W 05:51:52 10° N
COSMOS 2406 3.3 05:44:32 15° NNW 05:49:16 60° WSW 05:54:55 10° S
FALCON 9 DEB 3.5 05:49:54 30° W 05:51:13 50° SW 05:54:34 10° SE
BREEZE-M (TANK) 3.3 05:42:39 10° SW 05:51:38 69° SSE 05:54:28 10° ENE
Cosmos 1689 Rocket 2.7 05:49:05 10° SSW 05:51:42 32° W 05:51:47 32° W
USA 305 3.0 05:53:05 23° WNW 05:55:35 63° SW 05:59:48 10° SE
Cosmos 1242 Rocket 2.5 05:56:25 10° N 06:00:06 90° NE 06:03:46 10° S
ATLAS 5 CENTAUR R/B 2.5 05:58:53 21° WNW 06:00:33 27° NW 06:04:28 10° NNE
H-2A R/B 2.6 05:57:19 10° NNE 06:01:09 70° ESE 06:04:59 10° S
MOS 1 Rocket 3.5 05:58:29 10° S 06:03:26 64° W 06:08:41 10° NNW
USA 306 3.2 06:01:36 20° WNW 06:04:25 54° SW 06:08:35 10° SSE
CZ-2C R/B 3.5 05:59:55 10° SSE 06:05:09 53° ENE 06:10:18 10° N
Cosmos 2366 rocket 4.0 06:00:11 10° S 06:06:29 86° W 06:12:47 10° N
Cosmos 1633 Rocket 3.2 06:03:11 10° SSW 06:07:29 53° WNW 06:11:49 10° N
USA 81 4.1 06:04:17 10° SSW 06:09:24 54° W 06:14:35 10° N
Cosmos 2218 Rocket 3.9 06:06:01 10° SSW 06:12:14 75° W 06:18:26 10° N
Cosmos 1125 Rocket 3.8 06:08:05 10° SW 06:13:01 42° WNW 06:17:57 10° N
Meteor 1-20 Rocket 4.3 06:08:54 10° SSW 06:14:35 65° WNW 06:20:23 10° N
H-2A R/B 3.3 06:11:40 10° N 06:15:14 35° WNW 06:18:44 10° SW
GENESIS II 4.2 06:11:38 10° SW 06:15:38 73° NW 06:19:40 10° NNE
NOSS 3-1 (C) 4.4 06:10:47 10° NNW 06:18:20 73° NE 06:27:03 10° SE
Cosmos 1269 Rocket 4.0 06:15:36 10° NNW 06:20:55 86° WSW 06:26:12 10° SSE
PSLV R/B 4.2 06:19:46 10° N 06:23:17 38° WNW 06:26:44 10° SW
deb Kosmos-1763 4.1 06:23:44 10° NNW 06:27:18 61° WSW 06:30:51 10° S
NOSS 2-1 (E) 2.8 06:24:25 10° SW 06:27:45 71° NW 06:31:13 10° NNE
CZ-2C R/B 3.0 06:26:49 10° SW 06:29:09 18° S 06:31:25 10° SE
AQUARIUS 4.1 06:29:41 10° NNE 06:34:13 83° WNW 06:38:41 10° SSW
Cosmos 2242 Rocket 3.6 06:32:03 10° N 06:36:29 88° W 06:40:52 10° S
CZ-4B DEB 4.4 06:31:15 10° N 06:36:32 51° WNW 06:41:49 10° SW
COSMOS 2455 4.3 06:33:20 10° WNW 06:37:09 17° NW 06:41:00 10° N
Cosmos 1939 Rocket 3.8 06:38:31 10° NNE 06:42:36 56° E 06:46:39 10° S
Okean 1 3.8 06:40:06 10° NNW 06:43:56 41° W 06:47:43 10° SSW
USA 290 3.4 06:41:17 10° NW 06:44:04 26° WSW 06:46:49 10° SSW
Meteor 1-19 Rocket 4.3 06:40:08 10° NNW 06:45:26 56° W 06:50:42 10° S
Cosmos 1833 Rocket 3.8 06:40:58 10° NW 06:45:28 25° WSW 06:49:58 10° SSW
